WAT3630 WSSS-RJNS

Flight info

Callsign WAT3630
Flight time N/A
Altitude 35000
Route TOMAN3A TOMAN L625 UXEDA/N0482F360 L625 AKMON/K0889F360 L625 ANOKI/N0479F360 L625 MEVIN/N0473F370 B462 KAZIK Y59 AZAMA Y57 YULIA Y575 ALBAT A1 KEC Y12 AYANO V52 SHIMA Y12 KOHWA Y55 GAKKI Y551 ENSYU
Aircraft A346/H-SDE2E3FGHIJ3J4J5M1RWXY/LB1D1

Departure

Time N/A
Airport Singapore Changi Airport (WSSS)

Arrival

Time 2026-04-19 23:27
Airport Mount Fuji Shizuoka Airport (RJNS)
Time Latitude Longitude Altitude Speed Heading
2026-04-19 21:02 16.90837 117.71222 35941 ft 502 kts 47°
2026-04-19 21:02 16.93183 117.73904 35945 ft 502 kts 47°
2026-04-19 21:02 16.97923 117.79314 35943 ft 502 kts 47°
2026-04-19 21:03 17.02639 117.84693 35945 ft 502 kts 46°
2026-04-19 21:03 17.07403 117.90124 36160 ft 507 kts 46°
2026-04-19 21:04 17.09798 117.92856 36498 ft 506 kts 46°
2026-04-19 21:04 17.12178 117.95565 36841 ft 505 kts 46°
2026-04-19 21:04 17.16971 118.01002 36936 ft 506 kts 46°
2026-04-19 21:05 17.21762 118.06463 36939 ft 511 kts 46°
2026-04-19 21:05 17.26609 118.12003 36940 ft 518 kts 47°
2026-04-19 21:06 17.31503 118.17606 36939 ft 519 kts 46°
2026-04-19 21:06 17.36341 118.23151 36943 ft 519 kts 47°
2026-04-19 21:07 17.41227 118.28756 36939 ft 520 kts 46°
2026-04-19 21:07 17.46138 118.34395 36942 ft 520 kts 46°
2026-04-19 21:08 17.51005 118.39986 36941 ft 520 kts 46°
2026-04-19 21:08 17.55871 118.45583 36941 ft 520 kts 46°
2026-04-19 21:09 17.60778 118.51231 36941 ft 520 kts 46°
2026-04-19 21:09 17.65631 118.56823 36940 ft 520 kts 46°
2026-04-19 21:10 17.70531 118.62474 36945 ft 520 kts 46°
2026-04-19 21:10 17.75415 118.68123 36940 ft 520 kts 47°
2026-04-19 21:11 17.80284 118.73779 36942 ft 520 kts 47°
2026-04-19 21:11 17.85131 118.79395 36942 ft 521 kts 47°
2026-04-19 21:12 17.90032 118.85067 36942 ft 520 kts 47°
2026-04-19 21:12 17.94948 118.90763 36944 ft 521 kts 47°
2026-04-19 21:13 17.99810 118.96399 36940 ft 521 kts 47°
2026-04-19 21:13 18.04671 119.02035 36941 ft 521 kts 47°
2026-04-19 21:14 18.09594 119.07748 36941 ft 521 kts 47°
2026-04-19 21:14 18.14478 119.13399 36940 ft 521 kts 46°
2026-04-19 21:15 18.19369 119.19059 36941 ft 522 kts 47°
2026-04-19 21:15 18.24253 119.24738 36940 ft 522 kts 47°
2026-04-19 21:16 18.29185 119.30487 36941 ft 523 kts 46°
2026-04-19 21:16 18.34065 119.36180 36940 ft 523 kts 46°
2026-04-19 21:17 18.38949 119.41886 36941 ft 524 kts 47°
2026-04-19 21:17 18.43845 119.47611 36940 ft 523 kts 47°
2026-04-19 21:18 18.48743 119.53346 36939 ft 524 kts 47°
2026-04-19 21:18 18.53632 119.59080 36940 ft 525 kts 47°
2026-04-19 21:19 18.58533 119.64832 36940 ft 524 kts 46°
2026-04-19 21:19 18.63390 119.70544 36940 ft 525 kts 47°
2026-04-19 21:20 18.68309 119.76324 36941 ft 525 kts 47°
2026-04-19 21:20 18.73192 119.82064 36941 ft 526 kts 47°
2026-04-19 21:21 18.78107 119.87848 36939 ft 526 kts 47°
2026-04-19 21:21 18.83020 119.93632 36941 ft 527 kts 47°
2026-04-19 21:22 18.87922 119.99407 36939 ft 526 kts 47°
2026-04-19 21:22 18.92842 120.05214 36942 ft 526 kts 47°
2026-04-19 21:23 18.97754 120.11014 36940 ft 528 kts 47°
2026-04-19 21:23 19.02664 120.16818 36940 ft 528 kts 47°
2026-04-19 21:24 19.07590 120.22644 36942 ft 529 kts 47°
2026-04-19 21:24 19.12511 120.28461 36942 ft 528 kts 46°
2026-04-19 21:25 19.17427 120.34255 36940 ft 529 kts 47°
2026-04-19 21:25 19.22352 120.40084 36942 ft 529 kts 47°
2026-04-19 21:26 19.27269 120.45929 36942 ft 530 kts 47°
2026-04-19 21:26 19.32170 120.51764 36944 ft 530 kts 47°
2026-04-19 21:27 19.37112 120.57656 36944 ft 530 kts 47°
2026-04-19 21:27 19.42010 120.63497 36942 ft 531 kts 46°
2026-04-19 21:28 19.46937 120.69363 36942 ft 531 kts 47°
2026-04-19 21:28 19.51852 120.75245 36944 ft 531 kts 47°
2026-04-19 21:29 19.56775 120.81133 36943 ft 532 kts 47°
2026-04-19 21:29 19.61705 120.87032 36948 ft 532 kts 47°
2026-04-19 21:30 19.66614 120.92908 36946 ft 532 kts 47°
2026-04-19 21:30 19.71556 120.98832 36943 ft 533 kts 47°
2026-04-19 21:31 19.76479 121.04736 36944 ft 533 kts 47°
2026-04-19 21:31 19.81388 121.10633 36945 ft 533 kts 47°
2026-04-19 21:32 19.86328 121.16570 36938 ft 533 kts 47°
2026-04-19 21:32 19.91254 121.22497 36937 ft 534 kts 47°
2026-04-19 21:33 19.96195 121.28449 36937 ft 534 kts 47°
2026-04-19 21:33 20.01139 121.34411 36940 ft 535 kts 47°
2026-04-19 21:34 20.06064 121.40356 36936 ft 535 kts 47°
2026-04-19 21:34 20.10999 121.46316 36935 ft 536 kts 47°
2026-04-19 21:35 20.15936 121.52249 36941 ft 537 kts 47°
2026-04-19 21:35 20.20919 121.58259 36939 ft 537 kts 47°
2026-04-19 21:36 20.25889 121.64274 36939 ft 538 kts 47°
2026-04-19 21:36 20.30811 121.70269 36940 ft 538 kts 47°
2026-04-19 21:37 20.35775 121.76329 36937 ft 538 kts 47°
2026-04-19 21:37 20.40721 121.82351 36939 ft 539 kts 47°
2026-04-19 21:38 20.45670 121.88377 36940 ft 539 kts 47°
2026-04-19 21:38 20.50658 121.94456 36941 ft 540 kts 47°
2026-04-19 21:39 20.55582 122.00462 36941 ft 540 kts 47°
2026-04-19 21:39 20.60552 122.06530 36939 ft 540 kts 47°
2026-04-19 21:40 20.67981 122.15617 36940 ft 541 kts 47°
2026-04-19 21:41 20.72957 122.21709 36940 ft 540 kts 47°
2026-04-19 21:41 20.77878 122.27745 36940 ft 541 kts 47°
2026-04-19 21:42 20.82873 122.33878 36937 ft 541 kts 47°
2026-04-19 21:42 20.87836 122.39980 36940 ft 542 kts 47°
2026-04-19 21:43 20.92756 122.46036 36940 ft 542 kts 47°
2026-04-19 21:43 20.97935 122.52017 36937 ft 541 kts 41°
2026-04-19 21:44 21.03630 122.57296 36940 ft 539 kts 34°
2026-04-19 21:44 21.09780 122.61849 36942 ft 537 kts 30°
2026-04-19 21:45 21.16100 122.66180 36940 ft 536 kts 30°
2026-04-19 21:45 21.22395 122.70540 36940 ft 538 kts 30°
2026-04-19 21:46 21.28693 122.74932 36945 ft 538 kts 30°
2026-04-19 21:46 21.35025 122.79353 36942 ft 538 kts 30°
2026-04-19 21:47 21.41324 122.83751 36942 ft 539 kts 30°
2026-04-19 21:47 21.47644 122.88171 36942 ft 540 kts 30°
2026-04-19 21:48 21.53984 122.92609 36943 ft 539 kts 30°
2026-04-19 21:48 21.60329 122.97053 36945 ft 541 kts 30°
2026-04-19 21:49 21.66659 123.01492 36941 ft 541 kts 30°
2026-04-19 21:49 21.72984 123.05933 36944 ft 541 kts 30°
2026-04-19 21:50 21.79342 123.10405 36945 ft 541 kts 29°
2026-04-19 21:50 21.85650 123.14841 36942 ft 541 kts 30°
2026-04-19 21:51 21.92004 123.19318 36942 ft 542 kts 29°
2026-04-19 21:51 21.98338 123.23782 36944 ft 543 kts 30°
2026-04-19 21:52 22.04690 123.28268 36945 ft 543 kts 30°
2026-04-19 21:52 22.11051 123.32763 36946 ft 543 kts 29°
2026-04-19 21:53 22.17412 123.37244 36950 ft 542 kts 29°
2026-04-19 21:53 22.23753 123.41722 36949 ft 542 kts 29°
2026-04-19 21:54 22.30131 123.46240 36954 ft 543 kts 29°
2026-04-19 21:54 22.36446 123.50725 36951 ft 543 kts 29°
2026-04-19 21:55 22.42786 123.55231 36954 ft 543 kts 29°
2026-04-19 21:55 22.49140 123.59751 36955 ft 544 kts 29°
2026-04-19 21:56 22.55449 123.64249 36950 ft 544 kts 29°
2026-04-19 21:56 22.61807 123.68806 36955 ft 544 kts 30°
2026-04-19 21:57 22.68155 123.73367 36956 ft 544 kts 29°
2026-04-19 21:57 22.74523 123.77923 36958 ft 545 kts 30°
2026-04-19 21:58 22.80879 123.82471 36960 ft 545 kts 29°
2026-04-19 21:58 22.87220 123.87007 36956 ft 546 kts 30°
2026-04-19 21:59 22.93605 123.91589 36961 ft 545 kts 29°
2026-04-19 21:59 22.99932 123.96131 36959 ft 547 kts 29°
2026-04-19 22:00 23.06290 124.00776 36963 ft 547 kts 30°
2026-04-19 22:00 23.12592 124.05438 36960 ft 547 kts 30°
2026-04-19 22:01 23.18928 124.10106 36961 ft 547 kts 30°
2026-04-19 22:01 23.25238 124.14770 36962 ft 547 kts 30°
2026-04-19 22:02 23.31501 124.19544 36959 ft 550 kts 33°
2026-04-19 22:02 23.37378 124.25034 36960 ft 554 kts 41°
2026-04-19 22:03 23.42647 124.31209 36960 ft 558 kts 46°
2026-04-19 22:03 23.47746 124.37631 36958 ft 558 kts 47°
2026-04-19 22:04 23.52854 124.44056 36958 ft 558 kts 46°
2026-04-19 22:04 23.57969 124.50454 36958 ft 559 kts 46°
2026-04-19 22:05 23.63084 124.56850 36956 ft 559 kts 46°
2026-04-19 22:05 23.68221 124.63270 36961 ft 559 kts 46°
2026-04-19 22:06 23.73305 124.69657 36955 ft 560 kts 46°
2026-04-19 22:06 23.78403 124.76083 36959 ft 560 kts 47°
2026-04-19 22:07 23.83527 124.82531 36956 ft 560 kts 46°
2026-04-19 22:07 23.88656 124.88982 36957 ft 561 kts 46°
2026-04-19 22:08 23.93798 124.95455 36960 ft 561 kts 46°
2026-04-19 22:08 23.98914 125.01909 36960 ft 561 kts 46°
2026-04-19 22:09 24.04013 125.08342 36962 ft 562 kts 46°
2026-04-19 22:09 24.09174 125.14865 36962 ft 564 kts 46°
2026-04-19 22:10 24.14345 125.21385 36960 ft 563 kts 46°
2026-04-19 22:10 24.19459 125.27831 36961 ft 562 kts 46°
2026-04-19 22:11 24.24584 125.34322 36966 ft 563 kts 46°
2026-04-19 22:11 24.29703 125.40826 36967 ft 564 kts 46°
2026-04-19 22:12 24.34821 125.47344 36962 ft 563 kts 46°
2026-04-19 22:12 24.39962 125.53892 36970 ft 565 kts 46°
2026-04-19 22:13 24.45106 125.60459 36967 ft 565 kts 46°
2026-04-19 22:13 24.50215 125.66997 36962 ft 565 kts 47°
2026-04-19 22:14 24.55307 125.73545 36964 ft 565 kts 47°
2026-04-19 22:14 24.60479 125.80196 36972 ft 566 kts 47°
2026-04-19 22:15 24.65568 125.86730 36967 ft 566 kts 46°
2026-04-19 22:15 24.70729 125.93357 36965 ft 566 kts 46°
2026-04-19 22:16 24.75849 125.99944 36956 ft 566 kts 47°
2026-04-19 22:16 24.80983 126.06554 36957 ft 568 kts 47°
2026-04-19 22:17 24.86118 126.13190 36964 ft 567 kts 46°
2026-04-19 22:17 24.91243 126.19807 36956 ft 566 kts 46°
2026-04-19 22:18 24.96339 126.26396 36962 ft 567 kts 46°
2026-04-19 22:18 25.01487 126.33064 36959 ft 569 kts 47°
2026-04-19 22:19 25.06606 126.39706 36962 ft 569 kts 47°
2026-04-19 22:19 25.11770 126.46414 36953 ft 570 kts 46°
2026-04-19 22:20 25.16913 126.53061 36964 ft 571 kts 46°
2026-04-19 22:20 25.22088 126.59781 36957 ft 571 kts 46°
2026-04-19 22:21 25.27228 126.66488 36961 ft 572 kts 46°
2026-04-19 22:21 25.32364 126.73237 36960 ft 573 kts 47°
2026-04-19 22:22 25.37519 126.80009 36967 ft 574 kts 47°
2026-04-19 22:22 25.42688 126.86787 36963 ft 575 kts 47°
2026-04-19 22:23 25.47847 126.93562 36962 ft 574 kts 47°
2026-04-19 22:23 25.53035 127.00380 36970 ft 576 kts 47°
2026-04-19 22:24 25.58241 127.07244 36972 ft 578 kts 47°
2026-04-19 22:24 25.63516 127.14042 36974 ft 576 kts 45°
2026-04-19 22:25 25.68863 127.20649 36971 ft 576 kts 44°
2026-04-19 22:25 25.74234 127.27315 36973 ft 578 kts 45°
2026-04-19 22:26 25.79607 127.34032 36971 ft 579 kts 45°
2026-04-19 22:26 25.84950 127.40739 36971 ft 579 kts 45°
2026-04-19 22:27 25.90290 127.47456 36970 ft 579 kts 45°
2026-04-19 22:27 25.95653 127.54201 36967 ft 580 kts 45°
2026-04-19 22:28 26.01004 127.60958 36968 ft 581 kts 45°
2026-04-19 22:28 26.06392 127.67772 36955 ft 580 kts 46°
2026-04-19 22:29 26.11726 127.74544 36966 ft 580 kts 45°
2026-04-19 22:29 26.17302 127.81079 36970 ft 579 kts 38°
2026-04-19 22:30 26.23366 127.86930 36973 ft 574 kts 35°
2026-04-19 22:30 26.29549 127.92623 36969 ft 575 kts 34°
2026-04-19 22:31 26.35772 127.98401 36962 ft 576 kts 34°
2026-04-19 22:31 26.41943 128.04158 36966 ft 578 kts 34°
2026-04-19 22:32 26.48147 128.09976 36948 ft 577 kts 34°
2026-04-19 22:32 26.54353 128.15804 36940 ft 578 kts 34°
2026-04-19 22:33 26.60537 128.21622 36956 ft 579 kts 34°
2026-04-19 22:33 26.66718 128.27438 36958 ft 579 kts 35°
2026-04-19 22:34 26.72927 128.33287 36958 ft 582 kts 35°
2026-04-19 22:34 26.79093 128.39119 36965 ft 581 kts 35°
2026-04-19 22:35 26.85247 128.44942 36956 ft 581 kts 34°
2026-04-19 22:35 26.91451 128.50812 36956 ft 581 kts 34°
2026-04-19 22:36 26.97597 128.56653 36943 ft 579 kts 34°
2026-04-19 22:36 27.45706 129.02579 36975 ft 580 kts 36°
2026-04-19 22:37 27.51760 129.08583 36964 ft 585 kts 39°
2026-04-19 22:37 27.57379 129.15347 36961 ft 587 kts 46°
2026-04-19 22:38 27.62623 129.22488 36958 ft 589 kts 47°
2026-04-19 22:38 28.24307 130.07275 36970 ft 586 kts 47°
2026-04-19 22:38 28.65934 130.65517 36863 ft 587 kts 48°
2026-04-19 22:39 29.06622 131.23254 36876 ft 589 kts 49°
2026-04-19 22:39 29.88415 132.41183 37032 ft 591 kts 48°
2026-04-19 22:40 30.71736 133.59973 36915 ft 594 kts 50°
2026-04-19 22:40 31.53918 134.80963 36952 ft 595 kts 51°
2026-04-19 22:41 31.65832 134.98656 37003 ft 594 kts 46°
2026-04-19 22:41 31.72026 135.05020 36987 ft 586 kts 28°
2026-04-19 22:42 31.79226 135.09183 36984 ft 569 kts 11°
2026-04-19 22:42 31.86864 135.11212 36993 ft 557 kts
2026-04-19 22:43 31.94527 135.12990 36976 ft 569 kts 10°
2026-04-19 22:43 32.02028 135.16211 36986 ft 573 kts 14°
2026-04-19 22:44 32.09514 135.19615 36982 ft 573 kts 14°
2026-04-19 22:44 32.16960 135.22911 36991 ft 572 kts 13°
2026-04-19 22:45 32.24451 135.26172 36990 ft 572 kts 13°
2026-04-19 22:45 32.31937 135.29428 36988 ft 573 kts 13°
2026-04-19 22:46 32.39447 135.32704 36990 ft 573 kts 13°
2026-04-19 22:46 32.46960 135.35992 37002 ft 573 kts 13°
2026-04-19 22:47 32.54486 135.39288 36994 ft 573 kts 13°
2026-04-19 22:47 32.61966 135.42569 37006 ft 573 kts 13°
2026-04-19 22:48 32.69516 135.45889 36993 ft 573 kts 13°
2026-04-19 22:48 32.77027 135.49196 37002 ft 574 kts 13°
2026-04-19 22:49 32.84493 135.52493 37009 ft 573 kts 13°
2026-04-19 22:49 32.92034 135.55826 37003 ft 573 kts 13°
2026-04-19 22:50 32.99544 135.59151 37006 ft 574 kts 13°
2026-04-19 22:50 33.07061 135.62488 37018 ft 574 kts 13°
2026-04-19 22:51 33.14570 135.65826 37013 ft 574 kts 14°
2026-04-19 22:51 33.25848 135.70886 37026 ft 576 kts 14°
2026-04-19 22:52 33.33328 135.74237 37030 ft 575 kts 14°
2026-04-19 22:52 33.40780 135.77832 37035 ft 580 kts 19°
2026-04-19 22:53 33.47904 135.82483 37040 ft 587 kts 28°
2026-04-19 22:53 33.54575 135.88187 37040 ft 590 kts 35°
2026-04-19 22:54 33.61057 135.94263 37046 ft 590 kts 34°
2026-04-19 22:54 33.67531 136.00295 37051 ft 590 kts 34°
2026-04-19 22:55 33.74047 136.06308 37060 ft 591 kts 34°
2026-04-19 22:55 33.80579 136.12344 37060 ft 590 kts 34°
2026-04-19 22:56 33.87117 136.18390 37067 ft 591 kts 34°
2026-04-19 22:56 33.93599 136.24400 37056 ft 590 kts 34°
2026-04-19 22:57 34.00104 136.30449 37066 ft 591 kts 34°
2026-04-19 22:57 34.06629 136.36537 37062 ft 591 kts 34°
2026-04-19 22:58 34.13157 136.42621 37073 ft 590 kts 34°
2026-04-19 22:58 34.19689 136.48703 37076 ft 590 kts 34°
2026-04-19 22:59 34.26141 136.54753 37065 ft 589 kts 34°
2026-04-19 22:59 34.32631 136.60831 37065 ft 590 kts 33°
2026-04-19 23:00 34.39158 136.66811 37064 ft 589 kts 33°
2026-04-19 23:00 34.45661 136.72798 37051 ft 587 kts 33°
2026-04-19 23:01 34.48916 136.75809 36822 ft 582 kts 33°
2026-04-19 23:01 34.52107 136.78760 36252 ft 582 kts 33°
2026-04-19 23:01 34.55303 136.81711 35547 ft 584 kts 34°
2026-04-19 23:01 34.58527 136.84692 34908 ft 584 kts 34°
2026-04-19 23:02 34.61772 136.87697 34302 ft 582 kts 34°
2026-04-19 23:02 34.64952 136.90643 33729 ft 581 kts 34°
2026-04-19 23:02 34.67990 136.93898 33033 ft 585 kts 47°
2026-04-19 23:02 34.70223 136.98033 32368 ft 584 kts 67°
2026-04-19 23:03 34.71363 137.02641 31790 ft 572 kts 85°
2026-04-19 23:03 34.71678 137.07400 31255 ft 563 kts 92°
2026-04-19 23:03 34.71817 137.12112 30639 ft 560 kts 92°
2026-04-19 23:03 34.71952 137.16812 29979 ft 559 kts 91°
2026-04-19 23:04 34.72132 137.21492 29279 ft 556 kts 90°
2026-04-19 23:04 34.72360 137.26146 28502 ft 555 kts 89°
2026-04-19 23:04 34.72619 137.30774 27963 ft 548 kts 89°
2026-04-19 23:04 34.72892 137.35361 27447 ft 541 kts 89°
2026-04-19 23:05 34.73164 137.39871 26910 ft 534 kts 88°
2026-04-19 23:05 34.73435 137.44367 26373 ft 528 kts 88°
2026-04-19 23:05 34.73696 137.48782 25849 ft 523 kts 88°
2026-04-19 23:05 34.73950 137.53119 25329 ft 518 kts 88°
2026-04-19 23:06 34.74199 137.57442 24828 ft 512 kts 88°
2026-04-19 23:06 34.74448 137.61765 24342 ft 506 kts 88°
2026-04-19 23:06 34.74439 137.65967 23800 ft 497 kts 101°
2026-04-19 23:06 34.73544 137.69931 23338 ft 483 kts 116°
2026-04-19 23:07 34.71907 137.73416 22820 ft 471 kts 129°
2026-04-19 23:07 34.70011 137.76628 22257 ft 468 kts 129°
2026-04-19 23:07 34.68115 137.79799 21711 ft 464 kts 129°
2026-04-19 23:07 34.66250 137.82941 21205 ft 455 kts 129°
2026-04-19 23:08 34.64449 137.86008 20435 ft 442 kts 128°
2026-04-19 23:08 34.62699 137.89008 19515 ft 434 kts 128°
2026-04-19 23:08 34.60962 137.91995 18908 ft 432 kts 127°
2026-04-19 23:08 34.59251 137.94946 18455 ft 429 kts 127°
2026-04-19 23:09 34.57545 137.97885 18045 ft 423 kts 127°
2026-04-19 23:09 34.55855 138.00798 17649 ft 417 kts 127°
2026-04-19 23:09 34.54167 138.03603 17250 ft 411 kts 129°
2026-04-19 23:09 34.52377 138.06264 16846 ft 406 kts 131°
2026-04-19 23:10 34.50587 138.08862 16465 ft 400 kts 131°
2026-04-19 23:10 34.48800 138.11449 16074 ft 396 kts 131°
2026-04-19 23:10 34.47055 138.13971 15692 ft 391 kts 131°
2026-04-19 23:10 34.45315 138.16486 15320 ft 386 kts 131°
2026-04-19 23:11 34.43621 138.18936 15191 ft 373 kts 131°
2026-04-19 23:11 34.41993 138.21295 15169 ft 358 kts 131°
2026-04-19 23:11 34.40434 138.23550 15135 ft 344 kts 131°
2026-04-19 23:11 34.38919 138.25735 15099 ft 330 kts 131°
2026-04-19 23:12 34.37485 138.27805 15060 ft 317 kts 131°
2026-04-19 23:12 34.36102 138.29839 14876 ft 310 kts 130°
2026-04-19 23:12 34.34731 138.31895 14200 ft 320 kts 130°
2026-04-19 23:12 34.33316 138.34026 13465 ft 329 kts 128°
2026-04-19 23:13 34.32227 138.36433 12928 ft 333 kts 105°
2026-04-19 23:13 34.32193 138.39183 12561 ft 333 kts 78°
2026-04-19 23:13 34.32915 138.41823 12244 ft 330 kts 70°
2026-04-19 23:13 34.33835 138.44341 11837 ft 329 kts 66°
2026-04-19 23:14 34.34856 138.46806 11459 ft 327 kts 64°
2026-04-19 23:14 34.35952 138.49210 11093 ft 324 kts 62°
2026-04-19 23:14 34.37103 138.51518 10713 ft 322 kts 60°
2026-04-19 23:14 34.38339 138.53784 10262 ft 322 kts 58°
2026-04-19 23:15 34.39624 138.55934 10034 ft 314 kts 55°
2026-04-19 23:15 34.40945 138.57960 10018 ft 300 kts 53°
2026-04-19 23:15 34.42274 138.59837 9992 ft 286 kts 51°
2026-04-19 23:15 34.43610 138.61589 9740 ft 283 kts 49°
2026-04-19 23:16 34.45001 138.63280 9434 ft 280 kts 47°
2026-04-19 23:16 34.46419 138.64874 9145 ft 278 kts 45°
2026-04-19 23:16 34.47877 138.66399 8856 ft 276 kts 43°
2026-04-19 23:16 34.49372 138.67850 8573 ft 273 kts 41°
2026-04-19 23:17 34.50891 138.69214 8295 ft 271 kts 39°
2026-04-19 23:17 34.52442 138.70497 8021 ft 269 kts 37°
2026-04-19 23:17 34.54012 138.71693 7746 ft 268 kts 35°
2026-04-19 23:17 34.55632 138.72829 7470 ft 266 kts 32°
2026-04-19 23:18 34.57295 138.73758 7177 ft 268 kts 19°
2026-04-19 23:18 34.59177 138.73872 6871 ft 275 kts 351°
2026-04-19 23:18 34.60922 138.72867 6565 ft 282 kts 321°
2026-04-19 23:18 34.62055 138.70962 6288 ft 285 kts 295°
2026-04-19 23:19 34.62805 138.68742 6032 ft 283 kts 294°
2026-04-19 23:19 34.63529 138.66530 5764 ft 282 kts 294°
2026-04-19 23:19 34.64256 138.64342 5507 ft 280 kts 294°
2026-04-19 23:19 34.64995 138.62154 5252 ft 278 kts 294°
2026-04-19 23:20 34.65736 138.59987 4998 ft 276 kts 294°
2026-04-19 23:20 34.66457 138.57890 4847 ft 263 kts 294°
2026-04-19 23:20 34.67160 138.55887 4884 ft 252 kts 296°
2026-04-19 23:20 34.67869 138.54005 4892 ft 235 kts 297°
2026-04-19 23:21 34.68521 138.52240 4804 ft 222 kts 296°
2026-04-19 23:21 34.69112 138.50566 4721 ft 212 kts 295°
2026-04-19 23:21 34.69674 138.48921 4640 ft 211 kts 294°
2026-04-19 23:21 34.70226 138.47270 4513 ft 211 kts 294°
2026-04-19 23:22 34.70774 138.45607 4286 ft 212 kts 294°
2026-04-19 23:22 34.71310 138.43968 4060 ft 208 kts 294°
2026-04-19 23:22 34.71841 138.42346 4004 ft 207 kts 294°
2026-04-19 23:22 34.72377 138.40714 3884 ft 208 kts 294°
2026-04-19 23:23 34.72909 138.39094 3634 ft 206 kts 294°
2026-04-19 23:23 34.73434 138.37501 3361 ft 202 kts 293°
2026-04-19 23:23 34.73959 138.35912 3096 ft 201 kts 294°
2026-04-19 23:23 34.74471 138.34363 2817 ft 192 kts 292°
2026-04-19 23:24 34.74951 138.32904 2556 ft 181 kts 292°
2026-04-19 23:24 34.75401 138.31541 2317 ft 171 kts 293°
2026-04-19 23:24 34.75845 138.30206 2102 ft 168 kts 294°
2026-04-19 23:24 34.76278 138.28906 1890 ft 166 kts 294°
2026-04-19 23:25 34.76714 138.27600 1675 ft 165 kts 293°
2026-04-19 23:25 34.77145 138.26306 1463 ft 163 kts 294°
2026-04-19 23:25 34.77573 138.25021 1249 ft 163 kts 293°
2026-04-19 23:25 34.78000 138.23740 1039 ft 163 kts 293°
2026-04-19 23:26 34.78420 138.22479 827 ft 162 kts 293°
2026-04-19 23:26 34.78840 138.21217 616 ft 160 kts 293°
2026-04-19 23:26 34.79257 138.19961 431 ft 157 kts 292°
2026-04-19 23:26 34.79630 138.18837 434 ft 109 kts 293°
2026-04-19 23:27 34.79819 138.18289 459 ft 41 kts 290°
2026-04-19 23:27 34.79909 138.17993 462 ft 37 kts 292°
2026-04-19 23:27 34.79977 138.17725 469 ft 22 kts 248°
2026-04-19 23:27 34.79882 138.17662 482 ft 12 kts 156°
2026-04-19 23:28 34.79823 138.17743 483 ft 14 kts 118°
2026-04-19 23:28 34.79772 138.17868 479 ft 16 kts 127°
2026-04-19 23:28 34.79677 138.17914 483 ft 13 kts 186°
2026-04-19 23:28 34.79603 138.17891 484 ft 2 kts 196°